Date_Time,Julian_Date,Latitude,Longitude,Instrument_Depth,U,V,Speed,Direction
(yyyy-mm-dd hh:mn:ss UTC),(JD),(+ deg. North),(+ deg. East),(m),(cm/s),(cm/s),(cm/s),(deg True)
1985-06-15 02:00:00 UTC,2446231.583333,25.4917,-94.1600,3000,-7.38,0.03,7.3801,270.2329
1985-06-15 02:30:00 UTC,2446231.604167,25.4917,-94.1600,3000,-7.38,-0.15,7.3815,268.8356
1985-06-15 03:00:00 UTC,2446231.625000,25.4917,-94.1600,3000,-8.30,-0.42,8.3106,267.1032
1985-06-15 03:30:00 UTC,2446231.645833,25.4917,-94.1600,3000,-8.41,0.04,8.4101,270.2725
1985-06-15 04:00:00 UTC,2446231.666667,25.4917,-94.1600,3000,-8.03,0.08,8.0304,270.5708
1985-06-15 04:30:00 UTC,2446231.687500,25.4917,-94.1600,3000,-8.03,0.18,8.0320,271.2841
1985-06-15 05:00:00 UTC,2446231.708333,25.4917,-94.1600,3000,-7.85,0.13,7.8511,270.9488
1985-06-15 05:30:00 UTC,2446231.729167,25.4917,-94.1600,3000,-7.57,-0.01,7.5700,269.9243
1985-06-15 06:00:00 UTC,2446231.750000,25.4917,-94.1600,3000,-7.47,-0.15,7.4715,268.8496
1985-06-15 06:30:00 UTC,2446231.770833,25.4917,-94.1600,3000,-7.38,-0.15,7.3815,268.8356
1985-06-15 07:00:00 UTC,2446231.791667,25.4917,-94.1600,3000,-7.28,-0.24,7.2840,268.1118
1985-06-15 07:30:00 UTC,2446231.812500,25.4917,-94.1600,3000,-6.91,0.03,6.9101,270.2487
1985-06-15 08:00:00 UTC,2446231.833333,25.4917,-94.1600,3000,-6.81,-0.30,6.8166,267.4776
1985-06-15 08:30:00 UTC,2446231.854167,25.4917,-94.1600,3000,-6.15,-0.39,6.1624,266.3715
1985-06-15 09:00:00 UTC,2446231.875000,25.4917,-94.1600,3000,-5.97,-0.27,5.9761,267.4105
1985-06-15 09:30:00 UTC,2446231.895833,25.4917,-94.1600,3000,-5.69,-0.36,5.7014,266.3798
1985-06-15 10:00:00 UTC,2446231.916667,25.4917,-94.1600,3000,-5.49,-0.55,5.5175,264.2791
1985-06-15 10:30:00 UTC,2446231.937500,25.4917,-94.1600,3000,-5.50,-0.45,5.5184,265.3226
1985-06-15 11:00:00 UTC,2446231.958333,25.4917,-94.1600,3000,-6.14,-0.54,6.1637,264.9739
1985-06-15 11:30:00 UTC,2446231.979167,25.4917,-94.1600,3000,-5.39,-0.54,5.4170,264.2789
1985-06-15 12:00:00 UTC,2446232.000000,25.4917,-94.1600,3000,-5.03,-0.35,5.0422,266.0197
1985-06-15 12:30:00 UTC,2446232.020833,25.4917,-94.1600,3000,-5.41,-0.31,5.4189,266.7205
1985-06-15 13:00:00 UTC,2446232.041667,25.4917,-94.1600,3000,-5.70,-0.18,5.7028,268.1913
1985-06-15 13:30:00 UTC,2446232.062500,25.4917,-94.1600,3000,-5.50,-0.41,5.5153,265.7368
1985-06-15 14:00:00 UTC,2446232.083333,25.4917,-94.1600,3000,-5.50,-0.31,5.5087,266.7740
1985-06-15 14:30:00 UTC,2446232.104167,25.4917,-94.1600,3000,-5.59,-0.49,5.6114,264.9905
1985-06-15 15:00:00 UTC,2446232.125000,25.4917,-94.1600,3000,-5.67,-0.57,5.6986,264.2594
1985-06-15 15:30:00 UTC,2446232.145833,25.4917,-94.1600,3000,-5.76,-0.57,5.7881,264.3485
1985-06-15 16:00:00 UTC,2446232.166667,25.4917,-94.1600,3000,-5.96,-0.52,5.9826,265.0137
1985-06-15 16:30:00 UTC,2446232.187500,25.4917,-94.1600,3000,-6.24,-0.54,6.2633,265.0540
1985-06-15 17:00:00 UTC,2446232.208333,25.4917,-94.1600,3000,-6.43,-0.44,6.4450,266.0854
1985-06-15 17:30:00 UTC,2446232.229167,25.4917,-94.1600,3000,-6.43,-0.52,6.4510,265.3765
1985-06-15 18:00:00 UTC,2446232.250000,25.4917,-94.1600,3000,-6.43,-0.44,6.4450,266.0854
1985-06-15 18:30:00 UTC,2446232.270833,25.4917,-94.1600,3000,-6.43,-0.44,6.4450,266.0854
1985-06-15 19:00:00 UTC,2446232.291667,25.4917,-94.1600,3000,-6.35,-0.21,6.3535,268.1059
1985-06-15 19:30:00 UTC,2446232.312500,25.4917,-94.1600,3000,-6.16,-0.16,6.1621,268.5121
1985-06-15 20:00:00 UTC,2446232.333333,25.4917,-94.1600,3000,-5.89,-0.05,5.8902,269.5136
1985-06-15 20:30:00 UTC,2446232.354167,25.4917,-94.1600,3000,-5.70,-0.08,5.7006,269.1959
1985-06-15 21:00:00 UTC,2446232.375000,25.4917,-94.1600,3000,-5.51,-0.04,5.5101,269.5841
1985-06-15 21:30:00 UTC,2446232.395833,25.4917,-94.1600,3000,-5.23,-0.20,5.2338,267.8100
1985-06-15 22:00:00 UTC,2446232.416667,25.4917,-94.1600,3000,-5.23,-0.20,5.2338,267.8100
1985-06-15 22:30:00 UTC,2446232.437500,25.4917,-94.1600,3000,-5.31,-0.37,5.3229,266.0141
1985-06-15 23:00:00 UTC,2446232.458333,25.4917,-94.1600,3000,-5.40,-0.44,5.4179,265.3417
1985-06-15 23:30:00 UTC,2446232.479167,25.4917,-94.1600,3000,-5.50,-0.35,5.5111,266.3588
1985-06-16 00:00:00 UTC,2446232.500000,25.4917,-94.1600,3000,-5.69,-0.32,5.6990,266.7811
1985-06-16 00:30:00 UTC,2446232.520833,25.4917,-94.1600,3000,-6.06,-0.45,6.0767,265.7532
1985-06-16 01:00:00 UTC,2446232.541667,25.4917,-94.1600,3000,-6.34,-0.36,6.3502,266.7501
1985-06-16 01:30:00 UTC,2446232.562500,25.4917,-94.1600,3000,-6.63,-0.29,6.6363,267.4955
1985-06-16 02:00:00 UTC,2446232.583333,25.4917,-94.1600,3000,-7.00,-0.31,7.0069,267.4643
1985-06-16 02:30:00 UTC,2446232.604167,25.4917,-94.1600,3000,-7.38,-0.10,7.3807,269.2237
1985-06-16 03:00:00 UTC,2446232.625000,25.4917,-94.1600,3000,-7.47,-0.06,7.4702,269.5398
1985-06-16 03:30:00 UTC,2446232.645833,25.4917,-94.1600,3000,-7.38,0.12,7.3810,270.9315
1985-06-16 04:00:00 UTC,2446232.666667,25.4917,-94.1600,3000,-7.29,0.12,7.2910,270.9431
1985-06-16 04:30:00 UTC,2446232.687500,25.4917,-94.1600,3000,-7.19,0.03,7.1901,270.2391
1985-06-16 05:00:00 UTC,2446232.708333,25.4917,-94.1600,3000,-6.82,0.03,6.8201,270.2520
1985-06-16 05:30:00 UTC,2446232.729167,25.4917,-94.1600,3000,-6.62,0.43,6.6340,273.7164
1985-06-16 06:00:00 UTC,2446232.750000,25.4917,-94.1600,3000,-6.53,0.27,6.5356,272.3677
1985-06-16 06:30:00 UTC,2446232.770833,25.4917,-94.1600,3000,-6.44,0.30,6.4470,272.6671
1985-06-16 07:00:00 UTC,2446232.791667,25.4917,-94.1600,3000,-6.35,0.18,6.3526,271.6237
1985-06-16 07:30:00 UTC,2446232.812500,25.4917,-94.1600,3000,-6.16,0.33,6.1688,273.0665
1985-06-16 08:00:00 UTC,2446232.833333,25.4917,-94.1600,3000,-7.75,0.27,7.7547,271.9953
1985-06-16 08:30:00 UTC,2446232.854167,25.4917,-94.1600,3000,-7.47,0.30,7.4760,272.2998
1985-06-16 09:00:00 UTC,2446232.875000,25.4917,-94.1600,3000,-5.69,0.27,5.6964,272.7167
1985-06-16 09:30:00 UTC,2446232.895833,25.4917,-94.1600,3000,-5.50,0.36,5.5118,273.7449
1985-06-16 10:00:00 UTC,2446232.916667,25.4917,-94.1600,3000,-5.50,0.33,5.5099,273.4336
1985-06-16 10:30:00 UTC,2446232.937500,25.4917,-94.1600,3000,-5.51,0.29,5.5176,273.0128
1985-06-16 11:00:00 UTC,2446232.958333,25.4917,-94.1600,3000,-5.49,0.53,5.5155,275.5142
1985-06-16 11:30:00 UTC,2446232.979167,25.4917,-94.1600,3000,-5.47,0.66,5.5097,276.8799
1985-06-16 12:00:00 UTC,2446233.000000,25.4917,-94.1600,3000,-5.66,0.65,5.6972,276.5512
1985-06-16 12:30:00 UTC,2446233.020833,25.4917,-94.1600,3000,-5.77,0.52,5.7934,275.1497
1985-06-16 13:00:00 UTC,2446233.041667,25.4917,-94.1600,3000,-5.49,0.49,5.5118,275.1003
1985-06-16 13:30:00 UTC,2446233.062500,25.4917,-94.1600,3000,-5.58,0.57,5.6090,275.8326
1985-06-16 14:00:00 UTC,2446233.083333,25.4917,-94.1600,3000,-5.58,0.50,5.6024,275.1204
1985-06-16 14:30:00 UTC,2446233.104167,25.4917,-94.1600,3000,-5.49,0.49,5.5118,275.1003
1985-06-16 15:00:00 UTC,2446233.125000,25.4917,-94.1600,3000,-5.49,0.53,5.5155,275.5142
1985-06-16 15:30:00 UTC,2446233.145833,25.4917,-94.1600,3000,-5.48,0.56,5.5085,275.8348
1985-06-16 16:00:00 UTC,2446233.166667,25.4917,-94.1600,3000,-5.40,0.52,5.4250,275.5004
1985-06-16 16:30:00 UTC,2446233.187500,25.4917,-94.1600,3000,-5.39,0.55,5.4180,275.8264
1985-06-16 17:00:00 UTC,2446233.208333,25.4917,-94.1600,3000,-5.38,0.68,5.4228,277.2036
1985-06-16 17:30:00 UTC,2446233.229167,25.4917,-94.1600,3000,-5.38,0.65,5.4191,276.8890
1985-06-16 18:00:00 UTC,2446233.250000,25.4917,-94.1600,3000,-5.10,0.62,5.1375,276.9314
1985-06-16 18:30:00 UTC,2446233.270833,25.4917,-94.1600,3000,-5.10,0.65,5.1413,277.2632
1985-06-16 19:00:00 UTC,2446233.291667,25.4917,-94.1600,3000,-5.11,0.52,5.1364,275.8105
1985-06-16 19:30:00 UTC,2446233.312500,25.4917,-94.1600,3000,-4.84,0.43,4.8591,275.0770
1985-06-16 20:00:00 UTC,2446233.333333,25.4917,-94.1600,3000,-4.85,0.35,4.8626,274.1276
1985-06-16 20:30:00 UTC,2446233.354167,25.4917,-94.1600,3000,-4.85,0.26,4.8570,273.0686
1985-06-16 21:00:00 UTC,2446233.375000,25.4917,-94.1600,3000,-4.95,0.26,4.9568,273.0067
1985-06-16 21:30:00 UTC,2446233.395833,25.4917,-94.1600,3000,-4.85,0.23,4.8555,272.7151
1985-06-16 22:00:00 UTC,2446233.416667,25.4917,-94.1600,3000,-4.58,0.08,4.5807,271.0007
1985-06-16 22:30:00 UTC,2446233.437500,25.4917,-94.1600,3000,-4.76,0.14,4.7621,271.6847
1985-06-16 23:00:00 UTC,2446233.458333,25.4917,-94.1600,3000,-4.95,-0.13,4.9517,268.4956
1985-06-16 23:30:00 UTC,2446233.479167,25.4917,-94.1600,3000,-4.95,-0.28,4.9579,266.7625
1985-06-17 00:00:00 UTC,2446233.500000,25.4917,-94.1600,3000,-5.13,-0.32,5.1400,266.4306
1985-06-17 00:30:00 UTC,2446233.520833,25.4917,-94.1600,3000,-5.13,-0.23,5.1352,267.4329
1985-06-17 01:00:00 UTC,2446233.541667,25.4917,-94.1600,3000,-5.13,-0.26,5.1366,267.0986
1985-06-17 01:30:00 UTC,2446233.562500,25.4917,-94.1600,3000,-5.04,-0.16,5.0425,268.1817
1985-06-17 02:00:00 UTC,2446233.583333,25.4917,-94.1600,3000,-5.14,-0.04,5.1402,269.5541
1985-06-17 02:30:00 UTC,2446233.604167,25.4917,-94.1600,3000,-5.33,-0.11,5.3311,268.8177
1985-06-17 03:00:00 UTC,2446233.625000,25.4917,-94.1600,3000,-5.51,-0.01,5.5100,269.8960
1985-06-17 03:30:00 UTC,2446233.645833,25.4917,-94.1600,3000,-5.79,-0.19,5.7931,268.1205
1985-06-17 04:00:00 UTC,2446233.666667,25.4917,-94.1600,3000,-5.79,-0.08,5.7906,269.2084
1985-06-17 04:30:00 UTC,2446233.687500,25.4917,-94.1600,3000,-5.70,0.09,5.7007,270.9046
1985-06-17 05:00:00 UTC,2446233.708333,25.4917,-94.1600,3000,-5.70,0.13,5.7015,271.3065
1985-06-17 05:30:00 UTC,2446233.729167,25.4917,-94.1600,3000,-5.70,0.02,5.7000,270.2010
1985-06-17 06:00:00 UTC,2446233.750000,25.4917,-94.1600,3000,-5.88,0.24,5.8849,272.3373
1985-06-17 06:30:00 UTC,2446233.770833,25.4917,-94.1600,3000,-5.96,0.53,5.9835,275.0817
1985-06-17 07:00:00 UTC,2446233.791667,25.4917,-94.1600,3000,-6.25,0.37,6.2609,273.3880
1985-06-17 07:30:00 UTC,2446233.812500,25.4917,-94.1600,3000,-6.33,0.57,6.3556,275.1454
1985-06-17 08:00:00 UTC,2446233.833333,25.4917,-94.1600,3000,-6.34,0.41,6.3532,273.7001
1985-06-17 08:30:00 UTC,2446233.854167,25.4917,-94.1600,3000,-6.25,0.33,6.2587,273.0224
1985-06-17 09:00:00 UTC,2446233.875000,25.4917,-94.1600,3000,-6.07,0.25,6.0751,272.3585
1985-06-17 09:30:00 UTC,2446233.895833,25.4917,-94.1600,3000,-5.89,0.13,5.8914,271.2644
1985-06-17 10:00:00 UTC,2446233.916667,25.4917,-94.1600,3000,-5.59,0.37,5.6022,273.7869
1985-06-17 10:30:00 UTC,2446233.937500,25.4917,-94.1600,3000,-5.13,0.33,5.1406,273.6806
1985-06-17 11:00:00 UTC,2446233.958333,25.4917,-94.1600,3000,-5.22,0.44,5.2385,274.8181
1985-06-17 11:30:00 UTC,2446233.979167,25.4917,-94.1600,3000,-5.22,0.44,5.2385,274.8181
1985-06-17 12:00:00 UTC,2446234.000000,25.4917,-94.1600,3000,-5.48,0.56,5.5085,275.8348
1985-06-17 12:30:00 UTC,2446234.020833,25.4917,-94.1600,3000,-6.77,0.86,6.8244,277.2396
1985-06-17 13:00:00 UTC,2446234.041667,25.4917,-94.1600,3000,-7.11,1.08,7.1916,278.6371
1985-06-17 13:30:00 UTC,2446234.062500,25.4917,-94.1600,3000,-7.08,1.29,7.1966,280.3262
1985-06-17 14:00:00 UTC,2446234.083333,25.4917,-94.1600,3000,-6.93,1.53,7.0969,282.4500
1985-06-17 14:30:00 UTC,2446234.104167,25.4917,-94.1600,3000,-6.69,1.35,6.8249,281.4087
1985-06-17 15:00:00 UTC,2446234.125000,25.4917,-94.1600,3000,-5.94,1.27,6.0742,282.0684
1985-06-17 15:30:00 UTC,2446234.145833,25.4917,-94.1600,3000,-5.34,1.35,5.5080,284.1876
1985-06-17 16:00:00 UTC,2446234.166667,25.4917,-94.1600,3000,-5.23,1.43,5.4220,285.2922
1985-06-17 16:30:00 UTC,2446234.187500,25.4917,-94.1600,3000,-5.14,1.40,5.3273,285.2363
1985-06-17 17:00:00 UTC,2446234.208333,25.4917,-94.1600,3000,-5.07,1.28,5.2291,284.1691
1985-06-17 17:30:00 UTC,2446234.229167,25.4917,-94.1600,3000,-5.08,1.25,5.2315,283.8237
1985-06-17 18:00:00 UTC,2446234.250000,25.4917,-94.1600,3000,-4.60,1.25,4.7668,285.2024
1985-06-17 18:30:00 UTC,2446234.270833,25.4917,-94.1600,3000,-4.76,0.99,4.8619,281.7491
1985-06-17 19:00:00 UTC,2446234.291667,25.4917,-94.1600,3000,-4.48,0.93,4.5755,281.7274
1985-06-17 19:30:00 UTC,2446234.312500,25.4917,-94.1600,3000,-4.35,0.61,4.3926,277.9825
1985-06-17 20:00:00 UTC,2446234.333333,25.4917,-94.1600,3000,-4.10,0.37,4.1167,275.1566
1985-06-17 20:30:00 UTC,2446234.354167,25.4917,-94.1600,3000,-4.01,0.29,4.0205,274.1364
1985-06-17 21:00:00 UTC,2446234.375000,25.4917,-94.1600,3000,-3.92,0.18,3.9241,272.6291
1985-06-17 21:30:00 UTC,2446234.395833,25.4917,-94.1600,3000,-3.91,0.30,3.9215,274.3875
1985-06-17 22:00:00 UTC,2446234.416667,25.4917,-94.1600,3000,-3.92,0.21,3.9256,273.0665
1985-06-17 22:30:00 UTC,2446234.437500,25.4917,-94.1600,3000,-4.20,0.17,4.2034,272.3179
1985-06-17 23:00:00 UTC,2446234.458333,25.4917,-94.1600,3000,-4.39,0.02,4.3900,270.2610
1985-06-17 23:30:00 UTC,2446234.479167,25.4917,-94.1600,3000,-4.39,0.18,4.3937,272.3480
1985-06-18 00:00:00 UTC,2446234.500000,25.4917,-94.1600,3000,-4.67,0.05,4.6703,270.6134
1985-06-18 00:30:00 UTC,2446234.520833,25.4917,-94.1600,3000,-4.58,0.08,4.5807,271.0007
1985-06-18 01:00:00 UTC,2446234.541667,25.4917,-94.1600,3000,-4.86,0.05,4.8603,270.5894
1985-06-18 01:30:00 UTC,2446234.562500,25.4917,-94.1600,3000,-4.95,-0.04,4.9502,269.5370
1985-06-18 02:00:00 UTC,2446234.583333,25.4917,-94.1600,3000,-5.05,0.02,5.0500,270.2269
1985-06-18 02:30:00 UTC,2446234.604167,25.4917,-94.1600,3000,-5.23,0.02,5.2300,270.2191
1985-06-18 03:00:00 UTC,2446234.625000,25.4917,-94.1600,3000,-5.41,0.25,5.4158,272.6458
1985-06-18 03:30:00 UTC,2446234.645833,25.4917,-94.1600,3000,-5.98,0.21,5.9837,272.0112
1985-06-18 04:00:00 UTC,2446234.666667,25.4917,-94.1600,3000,-6.17,0.03,6.1701,270.2786
1985-06-18 04:30:00 UTC,2446234.687500,25.4917,-94.1600,3000,-5.89,0.10,5.8908,270.9727
1985-06-18 05:00:00 UTC,2446234.708333,25.4917,-94.1600,3000,-6.16,0.25,6.1651,272.3240
1985-06-18 05:30:00 UTC,2446234.729167,25.4917,-94.1600,3000,-6.44,0.26,6.4452,272.3120
1985-06-18 06:00:00 UTC,2446234.750000,25.4917,-94.1600,3000,-5.70,0.06,5.7003,270.6031
1985-06-18 06:30:00 UTC,2446234.770833,25.4917,-94.1600,3000,-5.70,0.09,5.7007,270.9046
1985-06-18 07:00:00 UTC,2446234.791667,25.4917,-94.1600,3000,-5.69,0.30,5.6979,273.0181
1985-06-18 07:30:00 UTC,2446234.812500,25.4917,-94.1600,3000,-5.60,0.30,5.6080,273.0665
1985-06-18 08:00:00 UTC,2446234.833333,25.4917,-94.1600,3000,-5.78,0.38,5.7925,273.7614
1985-06-18 08:30:00 UTC,2446234.854167,25.4917,-94.1600,3000,-5.69,0.30,5.6979,273.0181
1985-06-18 09:00:00 UTC,2446234.875000,25.4917,-94.1600,3000,-5.41,0.35,5.4213,273.7016
1985-06-18 09:30:00 UTC,2446234.895833,25.4917,-94.1600,3000,-5.30,0.57,5.3306,276.1384
1985-06-18 10:00:00 UTC,2446234.916667,25.4917,-94.1600,3000,-5.18,0.72,5.2298,277.9132
1985-06-18 10:30:00 UTC,2446234.937500,25.4917,-94.1600,3000,-5.27,0.77,5.3260,278.3127
1985-06-18 11:00:00 UTC,2446234.958333,25.4917,-94.1600,3000,-5.27,0.80,5.3304,278.6318
1985-06-18 11:30:00 UTC,2446234.979167,25.4917,-94.1600,3000,-5.16,0.88,5.2345,279.6783
1985-06-18 12:00:00 UTC,2446235.000000,25.4917,-94.1600,3000,-4.96,0.94,5.0483,280.7312
1985-06-18 12:30:00 UTC,2446235.020833,25.4917,-94.1600,3000,-4.48,0.93,4.5755,281.7274
1985-06-18 13:00:00 UTC,2446235.041667,25.4917,-94.1600,3000,-4.13,0.81,4.2087,281.0963
1985-06-18 13:30:00 UTC,2446235.062500,25.4917,-94.1600,3000,-3.77,0.67,3.8291,280.0773
1985-06-18 14:00:00 UTC,2446235.083333,25.4917,-94.1600,3000,-3.68,0.65,3.7370,280.0168
1985-06-18 14:30:00 UTC,2446235.104167,25.4917,-94.1600,3000,-3.75,0.78,3.8303,281.7500
1985-06-18 15:00:00 UTC,2446235.125000,25.4917,-94.1600,3000,-3.91,0.94,4.0214,283.5179
1985-06-18 15:30:00 UTC,2446235.145833,25.4917,-94.1600,3000,-3.90,0.96,4.0164,283.8287
1985-06-18 16:00:00 UTC,2446235.166667,25.4917,-94.1600,3000,-4.00,0.96,4.1136,283.4957
1985-06-18 16:30:00 UTC,2446235.187500,25.4917,-94.1600,3000,-4.01,0.91,4.1120,282.7857
1985-06-18 17:00:00 UTC,2446235.208333,25.4917,-94.1600,3000,-4.12,0.83,4.2028,281.3901
1985-06-18 17:30:00 UTC,2446235.229167,25.4917,-94.1600,3000,-4.33,0.74,4.3928,279.6982
1985-06-18 18:00:00 UTC,2446235.250000,25.4917,-94.1600,3000,-4.41,0.83,4.4874,280.6589
1985-06-18 18:30:00 UTC,2446235.270833,25.4917,-94.1600,3000,-4.58,0.92,4.6715,281.3580
1985-06-18 19:00:00 UTC,2446235.291667,25.4917,-94.1600,3000,-4.60,0.84,4.6761,280.3487
1985-06-18 19:30:00 UTC,2446235.312500,25.4917,-94.1600,3000,-4.59,0.87,4.6717,280.7327
1985-06-18 20:00:00 UTC,2446235.333333,25.4917,-94.1600,3000,-4.67,0.97,4.7697,281.7340
1985-06-18 20:30:00 UTC,2446235.354167,25.4917,-94.1600,3000,-4.70,0.80,4.7676,279.6599
1985-06-18 21:00:00 UTC,2446235.375000,25.4917,-94.1600,3000,-4.83,0.58,4.8647,276.8475
1985-06-18 21:30:00 UTC,2446235.395833,25.4917,-94.1600,3000,-4.65,0.42,4.6689,275.1611
1985-06-18 22:00:00 UTC,2446235.416667,25.4917,-94.1600,3000,-4.56,0.44,4.5812,275.5115
1985-06-18 22:30:00 UTC,2446235.437500,25.4917,-94.1600,3000,-4.57,0.33,4.5819,274.1302
1985-06-18 23:00:00 UTC,2446235.458333,25.4917,-94.1600,3000,-4.74,0.46,4.7623,275.5430
1985-06-18 23:30:00 UTC,2446235.479167,25.4917,-94.1600,3000,-4.83,0.52,4.8579,276.1448
1985-06-19 00:00:00 UTC,2446235.500000,25.4917,-94.1600,3000,-5.19,0.69,5.2357,277.5729
1985-06-19 00:30:00 UTC,2446235.520833,25.4917,-94.1600,3000,-5.73,0.83,5.7898,278.2421
1985-06-19 01:00:00 UTC,2446235.541667,25.4917,-94.1600,3000,-6.02,0.84,6.0783,277.9435
1985-06-19 01:30:00 UTC,2446235.562500,25.4917,-94.1600,3000,-5.53,0.94,5.6093,279.6470
1985-06-19 02:00:00 UTC,2446235.583333,25.4917,-94.1600,3000,-5.98,1.06,6.0732,280.0517
1985-06-19 02:30:00 UTC,2446235.604167,25.4917,-94.1600,3000,-5.51,1.04,5.6073,280.6887
1985-06-19 03:00:00 UTC,2446235.625000,25.4917,-94.1600,3000,-5.43,0.96,5.5142,280.0261
1985-06-19 03:30:00 UTC,2446235.645833,25.4917,-94.1600,3000,-5.34,0.94,5.4221,279.9835
1985-06-19 04:00:00 UTC,2446235.666667,25.4917,-94.1600,3000,-5.29,1.17,5.4178,282.4715
1985-06-19 04:30:00 UTC,2446235.687500,25.4917,-94.1600,3000,-5.28,1.23,5.4214,283.1135
1985-06-19 05:00:00 UTC,2446235.708333,25.4917,-94.1600,3000,-5.68,1.15,5.7952,281.4457
1985-06-19 05:30:00 UTC,2446235.729167,25.4917,-94.1600,3000,-5.21,1.09,5.3228,281.8166
1985-06-19 06:00:00 UTC,2446235.750000,25.4917,-94.1600,3000,-5.13,1.04,5.2344,281.4602
1985-06-19 06:30:00 UTC,2446235.770833,25.4917,-94.1600,3000,-5.11,1.13,5.2334,282.4695
1985-06-19 07:00:00 UTC,2446235.791667,25.4917,-94.1600,3000,-5.07,1.31,5.2365,284.4874
1985-06-19 07:30:00 UTC,2446235.812500,25.4917,-94.1600,3000,-5.10,1.53,5.3246,286.6992
1985-06-19 08:00:00 UTC,2446235.833333,25.4917,-94.1600,3000,-5.11,1.49,5.3228,286.2559
1985-06-19 08:30:00 UTC,2446235.854167,25.4917,-94.1600,3000,-5.06,1.65,5.3222,288.0605
1985-06-19 09:00:00 UTC,2446235.875000,25.4917,-94.1600,3000,-5.06,1.65,5.3222,288.0605
1985-06-19 09:30:00 UTC,2446235.895833,25.4917,-94.1600,3000,-4.90,1.83,5.2306,290.4791
1985-06-19 10:00:00 UTC,2446235.916667,25.4917,-94.1600,3000,-4.85,1.39,5.0453,285.9922
1985-06-19 10:30:00 UTC,2446235.937500,25.4917,-94.1600,3000,-4.41,1.23,4.5783,285.5844
1985-06-19 11:00:00 UTC,2446235.958333,25.4917,-94.1600,3000,-4.11,0.91,4.2095,282.4845
1985-06-19 11:30:00 UTC,2446235.979167,25.4917,-94.1600,3000,-3.78,0.64,3.8338,279.6097
1985-06-19 12:00:00 UTC,2446236.000000,25.4917,-94.1600,3000,-3.53,0.43,3.5561,276.9452
1985-06-19 12:30:00 UTC,2446236.020833,25.4917,-94.1600,3000,-3.34,0.40,3.3639,276.8293
1985-06-19 13:00:00 UTC,2446236.041667,25.4917,-94.1600,3000,-3.07,0.28,3.0827,275.2112
1985-06-19 13:30:00 UTC,2446236.062500,25.4917,-94.1600,3000,-2.98,0.30,2.9951,275.7487
1985-06-19 14:00:00 UTC,2446236.083333,25.4917,-94.1600,3000,-2.80,0.25,2.8111,275.1022
1985-06-19 14:30:00 UTC,2446236.104167,25.4917,-94.1600,3000,-2.15,0.13,2.1539,273.4602
1985-06-19 15:00:00 UTC,2446236.125000,25.4917,-94.1600,3000,-2.34,0.04,2.3403,270.9793
1985-06-19 15:30:00 UTC,2446236.145833,25.4917,-94.1600,3000,-2.81,0.06,2.8106,271.2232
1985-06-19 16:00:00 UTC,2446236.166667,25.4917,-94.1600,3000,-2.90,0.14,2.9034,272.7639
1985-06-19 16:30:00 UTC,2446236.187500,25.4917,-94.1600,3000,-3.27,0.13,3.2726,272.2766
1985-06-19 17:00:00 UTC,2446236.208333,25.4917,-94.1600,3000,-3.55,0.21,3.5562,273.3854
1985-06-19 17:30:00 UTC,2446236.229167,25.4917,-94.1600,3000,-3.54,0.25,3.5488,274.0396
1985-06-19 18:00:00 UTC,2446236.250000,25.4917,-94.1600,3000,-3.73,0.29,3.7413,274.4457
1985-06-19 18:30:00 UTC,2446236.270833,25.4917,-94.1600,3000,-3.72,0.36,3.7374,275.5275
1985-06-19 19:00:00 UTC,2446236.291667,25.4917,-94.1600,3000,-3.73,0.29,3.7413,274.4457
1985-06-19 19:30:00 UTC,2446236.312500,25.4917,-94.1600,3000,-4.00,0.36,4.0162,275.1428
1985-06-19 20:00:00 UTC,2446236.333333,25.4917,-94.1600,3000,-4.19,0.35,4.2046,274.7750
1985-06-19 20:30:00 UTC,2446236.354167,25.4917,-94.1600,3000,-4.29,0.25,4.2973,273.3351
1985-06-19 21:00:00 UTC,2446236.375000,25.4917,-94.1600,3000,-4.30,0.18,4.3038,272.3970
1985-06-19 21:30:00 UTC,2446236.395833,25.4917,-94.1600,3000,-4.57,0.27,4.5780,273.3812
1985-06-19 22:00:00 UTC,2446236.416667,25.4917,-94.1600,3000,-4.75,0.43,4.7694,275.1727
1985-06-19 22:30:00 UTC,2446236.437500,25.4917,-94.1600,3000,-4.92,0.59,4.9552,276.8382
1985-06-19 23:00:00 UTC,2446236.458333,25.4917,-94.1600,3000,-4.70,0.77,4.7627,279.3041
1985-06-19 23:30:00 UTC,2446236.479167,25.4917,-94.1600,3000,-4.69,0.86,4.7682,280.3908
1985-06-20 00:00:00 UTC,2446236.500000,25.4917,-94.1600,3000,-4.76,0.96,4.8558,281.4025
1985-06-20 00:30:00 UTC,2446236.520833,25.4917,-94.1600,3000,-4.75,1.02,4.8583,282.1195
1985-06-20 01:00:00 UTC,2446236.541667,25.4917,-94.1600,3000,-4.55,1.06,4.6718,283.1141
1985-06-20 01:30:00 UTC,2446236.562500,25.4917,-94.1600,3000,-4.56,1.01,4.6705,282.4889
1985-06-20 02:00:00 UTC,2446236.583333,25.4917,-94.1600,3000,-4.92,1.12,5.0459,282.8244
1985-06-20 02:30:00 UTC,2446236.604167,25.4917,-94.1600,3000,-4.92,1.12,5.0459,282.8244
1985-06-20 03:00:00 UTC,2446236.625000,25.4917,-94.1600,3000,-4.99,1.23,5.1394,283.8470
1985-06-20 03:30:00 UTC,2446236.645833,25.4917,-94.1600,3000,-5.09,1.22,5.2342,283.4787
1985-06-20 04:00:00 UTC,2446236.666667,25.4917,-94.1600,3000,-5.20,1.15,5.3256,282.4705
1985-06-20 04:30:00 UTC,2446236.687500,25.4917,-94.1600,3000,-5.39,1.16,5.5134,282.1456
1985-06-20 05:00:00 UTC,2446236.708333,25.4917,-94.1600,3000,-5.33,1.01,5.4248,280.7299
1985-06-20 05:30:00 UTC,2446236.729167,25.4917,-94.1600,3000,-5.45,1.31,5.6052,283.5156
1985-06-20 06:00:00 UTC,2446236.750000,25.4917,-94.1600,3000,-5.25,1.33,5.4158,284.2159
1985-06-20 06:30:00 UTC,2446236.770833,25.4917,-94.1600,3000,-5.08,1.25,5.2315,283.8237
1985-06-20 07:00:00 UTC,2446236.791667,25.4917,-94.1600,3000,-4.96,1.35,5.1404,285.2258
1985-06-20 07:30:00 UTC,2446236.812500,25.4917,-94.1600,3000,-4.62,0.70,4.6727,278.6157
1985-06-20 08:00:00 UTC,2446236.833333,25.4917,-94.1600,3000,-4.63,0.64,4.6740,277.8701
1985-06-20 08:30:00 UTC,2446236.854167,25.4917,-94.1600,3000,-4.33,0.74,4.3928,279.6982
1985-06-20 09:00:00 UTC,2446236.875000,25.4917,-94.1600,3000,-4.25,0.67,4.3025,278.9588
1985-06-20 09:30:00 UTC,2446236.895833,25.4917,-94.1600,3000,-4.07,0.62,4.1170,278.6615
1985-06-20 10:00:00 UTC,2446236.916667,25.4917,-94.1600,3000,-4.16,0.63,4.2074,278.6116
1985-06-20 10:30:00 UTC,2446236.937500,25.4917,-94.1600,3000,-4.32,0.79,4.3916,280.3632
1985-06-20 11:00:00 UTC,2446236.958333,25.4917,-94.1600,3000,-4.40,0.86,4.4833,281.0593
1985-06-20 11:30:00 UTC,2446236.979167,25.4917,-94.1600,3000,-3.89,0.54,3.9273,277.9031
1985-06-20 12:00:00 UTC,2446237.000000,25.4917,-94.1600,3000,-3.92,0.23,3.9267,273.3579
1985-06-20 12:30:00 UTC,2446237.020833,25.4917,-94.1600,3000,-4.01,0.21,4.0155,272.9978
1985-06-20 13:00:00 UTC,2446237.041667,25.4917,-94.1600,3000,-4.21,0.07,4.2106,270.9526
1985-06-20 13:30:00 UTC,2446237.062500,25.4917,-94.1600,3000,-3.83,-0.03,3.8301,269.5512
1985-06-20 14:00:00 UTC,2446237.083333,25.4917,-94.1600,3000,-3.65,-0.01,3.6500,269.8430
1985-06-20 14:30:00 UTC,2446237.104167,25.4917,-94.1600,3000,-3.55,-0.18,3.5546,267.0974
1985-06-20 15:00:00 UTC,2446237.125000,25.4917,-94.1600,3000,-3.73,-0.28,3.7405,265.7070
1985-06-20 15:30:00 UTC,2446237.145833,25.4917,-94.1600,3000,-3.63,-0.34,3.6459,264.6491
1985-06-20 16:00:00 UTC,2446237.166667,25.4917,-94.1600,3000,-3.62,-0.41,3.6431,263.5382
1985-06-20 16:30:00 UTC,2446237.187500,25.4917,-94.1600,3000,-3.91,-0.37,3.9275,264.5942